COSMOS 1375 DEB, 18415

Orbit data source: Space-Track

COSMOS 1375 DEB, 18415 is space debris in LEO originally from a launch on Sun, 06 Jun 1982 UTC launched from the Plesetsk Missile And Space Complex (PKMTR). Debris objects in space refer to the collection of defunct objects orbiting the Earth. Examples of debris include non-operational satellites, rocket bodies, and fragments generated from explosions, collisions, or faulty payload assembly.

Loading next visibility...
Identifier
18415, 1982-055BE
Orbit
LEO
Country
Flag of CISCIS
Related business
Manufacturer
Unknown
Mission
Spacecraft
Bus & Motor
Unknown
Mass
Unknown
Launch date (UTC)
1982-06-06 (44 years ago)
Launch vehicle
Unknown
Launch site
Plesetsk Missile And Space Complex (PKMTR)
Object type
Payload
Rocket body
Debris
Shape & HBR
Unknown shape, 0.2 m
Radar Cross Section
Medium (>0.1 m² and <1 m²)

Expand to show TLE details & history
Last TLE update: 2 days ago

TLE from 2 days ago
0 COSMOS 1375 DEB
1 18415U 82055BE  26171.39295822  .00000272  00000-0  37431-3 0  9998
2 18415  65.8255 216.1550 0057689 108.8294 263.7101 13.73340054 27525
Epoch: 2026-06-20T09:25Z
TLE epoch observation values (Epoch: 2026-06-20T09:25:51.590Z)
Latitude
10.79487°
Longitude
170.96609°
Altitude
993.734 km
Speed
7.354 km/s
True Right ascension
14h 44m 09s
True Declination
10° 44' 02"
Sunlit
Object was in full shadow at epoch
Visualization orbit readout
Latitude
Unknown
Longitude
Unknown
Altitude
Unknown
Speed
Unknown
Apparent Right ascension
Unknown
Apparent Declination
Unknown
Sunlit
N/A
Visualization observer readout
Local Sidereal Time
08:25:58
Azimuth
Unknown
Elevation
Unknown
Doppler factor
Unknown
Orbital elements
Apogee altitude
1,028.607 km
Perigee altitude
943.64 km
Semi-major axis
7,364.26 km
Eccentricity
0.00577
Inclination
65.8255°
RAAN
216.155°
Arg. of periapsis
108.8294°
True anomaly
263.05355°
Mean anomaly
263.7101°
Eccentric anomaly
263.38177°
Mean motion
3.43439 °/min
Orbital period
104.82 mins
BSTAR
0.00037431
Loading maneuver chart data...
Computing Atmospheric mass density...
Loading historical data...
Loading historical data...
Loading historical data...
Loading historical data...
Loading historical data...
Loading historical data...
Loading historical data...

Documentation

Showing up to 5 results
|